QPF
0.00 0.00 0.00 0.00 0.00 0.00 0.00 0.00 0.00 0.00 0.00 0.00 0.00 0.00 0.00 0.00 0.00 0.00 0.00 0.00 0.00 0.00 0.00 0.00 0.00 0.00 0.00 0.00 0.00 0.00 0.00 0.00 0.00 0.00 0.00 0.00 0.00 0.00 0.00 0.00 0.00 0.00 0.00 0.00 0.00 0.00 0.00
0.00 0.00 0.00 0.00 0.00 0.00 0.00 0.00 0.00 0.00 0.00 0.00 0.00 0.00 0.00 0.00 0.00 0.00 0.00 0.00 0.00 0.00 0.00 0.00 0.00 0.00 0.00 0.00 0.00 0.00 0.00 0.00 0.00 0.00 0.00 0.00 0.00 0.00 0.00 0.00 0.00 0.00 0.00 0.00 0.00 0.00 0.00
0.00 0.00 0.00 0.00 0.00 0.00 0.00 0.00 0.00 0.00 0.00 0.00 0.00 0.00 0.00 0.00 0.00 0.00 0.00 0.00 0.00 0.00 0.00 0.00 0.00 0.00 0.00 0.00 0.00 0.00 0.00 0.00 0.00 0.00 0.00 0.00 0.00 0.00 0.00 0.00 0.00 0.00 0.00 0.00 0.00 0.00 0.00
0.01 0.00 0.00 0.00 0.00 0.00 0.00 0.00 0.00 0.00 0.00 0.00 0.00 0.00 0.00 0.00 0.00 0.00 0.00 0.00 0.00 0.00 0.00 0.00 0.00 0.00 0.00 0.00 0.00 0.00 0.00 0.00 0.00 0.00 0.00 0.00 0.00 0.00 0.00 0.00 0.00 0.00 0.00 0.00 0.00 0.00 0.00
0.03 0.00 0.00 0.00 0.00 0.00 0.00 0.00 0.00 0.00 0.00 0.00 0.00 0.00 0.00 0.00 0.00 0.00 0.00 0.00 0.00 0.00 0.00 0.00 0.00 0.00 0.00 0.00 0.00 0.00 0.00 0.00 0.00 0.00 0.00 0.00 0.00 0.00 0.00 0.00 0.00 0.00 0.00 0.00 0.00 0.00 0.00
0.04 0.00 0.00 0.00 0.00 0.00 0.00 0.00 0.00 0.00 0.00 0.00 0.00 0.00 0.00 0.00 0.00 0.00 0.00 0.00 0.00 0.00 0.00 0.00 0.00 0.00 0.00 0.00 0.00 0.00 0.00 0.00 0.00 0.00 0.00 0.00 0.00 0.00 0.00 0.00 0.00 0.00 0.00 0.00 0.00 0.00 0.00
0.12 0.00 0.00 0.00 0.00 0.00 0.00 0.00 0.00 0.00 0.00 0.00 0.00 0.00 0.00 0.00 0.00 0.00 0.00 0.00 0.00 0.00 0.00 0.00 0.00 0.00 0.00 0.00 0.00 0.00 0.00 0.00 0.00 0.00 0.00 0.00 0.00 0.00 0.00 0.00 0.00 0.00 0.00 0.00 0.00 0.00 0.00
0.14 0.02 0.00 0.00 0.00 0.00 0.00 0.00 0.00 0.00 0.00 0.00 0.00 0.00 0.00 0.00 0.00 0.00 0.00 0.00 0.00 0.00 0.00 0.00 0.00 0.00 0.00 0.00 0.00 0.00 0.00 0.00 0.00 0.00 0.00 0.00 0.00 0.00 0.00 0.00 0.00 0.00 0.00 0.00 0.00 0.00 0.00
0.29 0.05 0.00 0.00 0.00 0.00 0.00 0.00 0.00 0.00 0.00 0.00 0.00 0.00 0.00 0.00 0.00 0.00 0.00 0.00 0.00 0.00 0.00 0.00 0.00 0.00 0.00 0.00 0.00 0.00 0.00 0.00 0.00 0.00 0.00 0.00 0.00 0.00 0.00 0.00 0.00 0.00 0.00 0.00 0.00 0.00 0.00
0.25 0.08 0.00 0.00 0.00 0.00 0.00 0.00 0.00 0.00 0.00 0.00 0.00 0.00 0.00 0.00 0.00 0.00 0.00 0.00 0.00 0.00 0.00 0.00 0.00 0.00 0.00 0.00 0.00 0.00 0.00 0.00 0.00 0.00 0.00 0.00 0.00 0.00 0.00 0.00 0.00 0.00 0.00 0.00 0.00 0.00 0.00
0.22 0.14 0.01 0.00 0.00 0.00 0.00 0.00 0.00 0.00 0.00 0.00 0.00 0.00 0.00 0.00 0.00 0.00 0.00 0.00 0.00 0.00 0.00 0.00 0.00 0.00 0.00 0.00 0.00 0.00 0.00 0.00 0.00 0.00 0.00 0.00 0.00 0.00 0.00 0.00 0.00 0.00 0.00 0.00 0.00 0.00 0.00
0.18 0.15 0.02 0.00 0.00 0.00 0.00 0.00 0.00 0.00 0.00 0.00 0.00 0.00 0.00 0.00 0.00 0.00 0.00 0.00 0.00 0.00 0.00 0.00 0.00 0.00 0.00 0.00 0.00 0.00 0.00 0.00 0.00 0.00 0.00 0.00 0.00 0.00 0.00 0.00 0.00 0.00 0.00 0.00 0.00 0.00 0.00
0.18 0.16 0.03 0.00 0.00 0.00 0.00 0.00 0.00 0.00 0.00 0.00 0.00 0.00 0.00 0.00 0.00 0.00 0.00 0.00 0.00 0.00 0.00 0.00 0.00 0.00 0.00 0.00 0.00 0.00 0.00 0.00 0.00 0.00 0.00 0.00 0.00 0.00 0.00 0.00 0.00 0.00 0.00 0.00 0.00 0.00 0.00
0.21 0.12 0.03 0.00 0.00 0.00 0.00 0.00 0.00 0.00 0.00 0.00 0.00 0.00 0.00 0.00 0.00 0.00 0.00 0.00 0.00 0.00 0.00 0.00 0.00 0.00 0.00 0.00 0.00 0.00 0.00 0.00 0.00 0.00 0.00 0.00 0.00 0.00 0.00 0.00 0.00 0.00 0.00 0.00 0.00 0.00 0.00
0.21 0.10 0.03 0.00 0.00 0.00 0.00 0.00 0.00 0.00 0.00 0.00 0.00 0.00 0.00 0.00 0.00 0.00 0.00 0.00 0.00 0.00 0.00 0.00 0.00 0.00 0.00 0.00 0.00 0.00 0.00 0.00 0.00 0.00 0.00 0.00 0.00 0.00 0.00 0.00 0.00 0.00 0.00 0.00 0.00 0.00 0.00
0.20 0.11 0.05 0.00 0.00 0.00 0.00 0.00 0.00 0.00 0.00 0.00 0.00 0.00 0.00 0.00 0.00 0.00 0.00 0.00 0.00 0.00 0.00 0.00 0.00 0.00 0.00 0.00 0.00 0.00 0.00 0.00 0.00 0.00 0.00 0.00 0.00 0.00 0.00 0.00 0.00 0.00 0.00 0.00 0.00 0.00 0.00
0.23 0.14 0.07 0.00 0.00 0.00 0.00 0.00 0.00 0.00 0.00 0.00 0.00 0.00 0.00 0.00 0.00 0.00 0.00 0.00 0.00 0.00 0.00 0.00 0.00 0.00 0.00 0.00 0.00 0.00 0.00 0.00 0.00 0.00 0.00 0.00 0.00 0.00 0.00 0.00 0.00 0.00 0.00 0.00 0.00 0.00 0.00
0.21 0.21 0.09 0.00 0.00 0.00 0.00 0.00 0.00 0.00 0.00 0.00 0.00 0.00 0.00 0.00 0.00 0.00 0.00 0.00 0.00 0.00 0.00 0.00 0.00 0.00 0.00 0.00 0.00 0.00 0.00 0.00 0.00 0.00 0.00 0.00 0.00 0.00 0.00 0.00 0.00 0.00 0.00 0.00 0.00 0.00 0.00
0.21 0.26 0.08 0.00 0.00 0.00 0.00 0.00 0.00 0.00 0.00 0.00 0.00 0.00 0.00 0.00 0.00 0.00 0.00 0.00 0.00 0.00 0.00 0.00 0.00 0.00 0.00 0.00 0.00 0.00 0.00 0.00 0.00 0.00 0.00 0.00 0.00 0.00 0.00 0.00 0.00 0.00 0.00 0.00 0.00 0.00 0.00
0.24 0.29 0.14 0.00 0.00 0.00 0.00 0.00 0.00 0.00 0.00 0.00 0.00 0.00 0.00 0.00 0.00 0.00 0.00 0.00 0.00 0.00 0.00 0.00 0.00 0.00 0.00 0.00 0.00 0.00 0.00 0.00 0.00 0.00 0.00 0.00 0.00 0.00 0.00 0.00 0.00 0.00 0.00 0.00 0.00 0.00 0.00
0.24 0.24 0.16 0.01 0.00 0.00 0.00 0.00 0.00 0.00 0.00 0.00 0.00 0.00 0.00 0.00 0.00 0.00 0.00 0.00 0.00 0.00 0.00 0.00 0.00 0.00 0.00 0.00 0.00 0.00 0.00 0.00 0.00 0.00 0.00 0.00 0.00 0.00 0.00 0.00 0.00 0.00 0.00 0.00 0.00 0.00 0.00
0.19 0.21 0.16 0.03 0.00 0.00 0.00 0.00 0.00 0.00 0.00 0.00 0.00 0.00 0.00 0.00 0.00 0.00 0.00 0.00 0.00 0.00 0.00 0.00 0.00 0.00 0.00 0.00 0.00 0.00 0.00 0.00 0.00 0.00 0.00 0.00 0.00 0.00 0.00 0.00 0.00 0.00 0.00 0.00 0.00 0.00 0.00
0.22 0.26 0.19 0.07 0.01 0.00 0.00 0.00 0.00 0.00 0.00 0.00 0.00 0.00 0.00 0.00 0.00 0.00 0.00 0.00 0.00 0.00 0.00 0.00 0.00 0.00 0.00 0.00 0.00 0.00 0.00 0.00 0.00 0.00 0.00 0.00 0.00 0.00 0.00 0.00 0.00 0.00 0.00 0.00 0.00 0.00 0.00
0.25 0.23 0.17 0.07 0.03 0.00 0.00 0.00 0.00 0.00 0.00 0.00 0.00 0.00 0.00 0.00 0.00 0.00 0.00 0.00 0.00 0.00 0.00 0.00 0.00 0.00 0.00 0.00 0.00 0.00 0.00 0.00 0.00 0.00 0.00 0.00 0.00 0.00 0.00 0.00 0.00 0.00 0.00 0.00 0.00 0.00 0.00
0.18 0.13 0.11 0.05 0.01 0.00 0.00 0.00 0.00 0.00 0.00 0.00 0.00 0.00 0.00 0.00 0.00 0.00 0.00 0.00 0.00 0.00 0.00 0.00 0.00 0.00 0.00 0.00 0.00 0.00 0.00 0.00 0.00 0.00 0.00 0.00 0.00 0.00 0.00 0.00 0.00 0.00 0.00 0.00 0.00 0.00 0.00
0.06 0.07 0.07 0.04 0.00 0.00 0.00 0.00 0.00 0.00 0.00 0.00 0.00 0.00 0.00 0.00 0.00 0.00 0.00 0.00 0.00 0.00 0.00 0.00 0.00 0.00 0.00 0.00 0.00 0.00 0.00 0.00 0.00 0.00 0.00 0.00 0.00 0.00 0.00 0.00 0.00 0.00 0.00 0.00 0.00 0.00 0.00
0.00 0.00 0.00 0.01 0.00 0.00 0.00 0.00 0.00 0.00 0.00 0.00 0.00 0.00 0.00 0.00 0.00 0.00 0.00 0.00 0.00 0.00 0.00 0.00 0.00 0.00 0.00 0.00 0.00 0.00 0.00 0.00 0.00 0.00 0.00 0.00 0.00 0.00 0.00 0.00 0.00 0.00 0.00 0.00 0.00 0.00 0.00
0.00 0.00 0.00 0.00 0.00 0.00 0.00 0.00 0.00 0.00 0.00 0.00 0.00 0.00 0.00 0.00 0.00 0.00 0.00 0.00 0.00 0.00 0.00 0.00 0.00 0.00 0.00 0.00 0.00 0.00 0.00 0.00 0.00 0.00 0.00 0.00 0.00 0.00 0.00 0.00 0.00 0.00 0.00 0.00 0.00 0.00 0.00
0.00 0.00 0.00 0.00 0.00 0.00 0.00 0.00 0.00 0.00 0.00 0.00 0.00 0.00 0.00 0.00 0.00 0.00 0.00 0.00 0.00 0.00 0.00 0.00 0.00 0.00 0.00 0.00 0.00 0.00 0.00 0.00 0.00 0.00 0.00 0.00 0.00 0.00 0.00 0.00 0.00 0.00 0.00 0.00 0.00 0.00 0.00
MSLP
1013.60 1014.19 1014.78 1015.32 1015.83 1016.29 1016.63 1017.01 1017.34 1017.48 1017.35 1017.27 1017.16 1016.98 1016.60 1016.23 1015.88 1015.49 1015.12 1014.72 1014.36 1014.04 1013.55 1013.13 1012.70 1012.17 1011.64 1012.01 1012.06 1011.22 1010.90 1010.59 1010.26 1010.32 1010.88 1011.18 1011.54 1012.08 1012.89 1013.11 1013.06 1013.24 1013.50 1013.38 1013.10 1013.07 1012.91
1013.07 1013.79 1014.38 1015.12 1015.52 1016.02 1016.46 1016.69 1017.22 1017.43 1017.40 1017.15 1017.05 1016.92 1016.60 1016.25 1015.86 1015.42 1015.03 1014.60 1014.17 1013.82 1013.39 1012.99 1012.68 1012.17 1011.98 1012.32 1011.80 1011.54 1011.30 1010.89 1010.98 1011.06 1011.39 1011.43 1011.78 1012.09 1012.65 1013.07 1013.27 1013.53 1013.88 1013.86 1013.55 1013.45 1013.74
1012.54 1013.27 1013.95 1014.83 1015.36 1015.78 1016.27 1016.46 1017.01 1017.33 1017.36 1017.19 1016.94 1016.74 1016.54 1016.24 1015.86 1015.42 1014.99 1014.54 1014.07 1013.65 1013.31 1012.98 1012.69 1012.40 1012.26 1012.37 1011.93 1011.71 1011.49 1011.39 1011.34 1011.38 1011.54 1011.46 1011.61 1012.13 1012.74 1013.19 1013.39 1013.65 1014.15 1014.29 1014.52 1014.30 1014.33
1012.18 1012.77 1013.49 1014.41 1015.19 1015.54 1016.15 1016.35 1016.67 1017.16 1017.21 1017.17 1016.98 1016.77 1016.45 1016.08 1015.60 1015.16 1014.74 1014.29 1013.79 1013.44 1013.18 1013.03 1012.84 1012.64 1012.60 1011.94 1011.95 1011.80 1011.70 1011.53 1011.41 1011.27 1011.37 1011.43 1011.62 1012.37 1013.07 1013.47 1014.05 1014.61 1014.92 1015.56 1015.82 1015.71 1015.34
1011.72 1012.22 1013.07 1013.98 1014.92 1015.39 1016.04 1016.35 1016.45 1016.96 1017.12 1017.12 1016.94 1016.75 1016.46 1016.02 1015.50 1015.01 1014.46 1013.94 1013.57 1013.36 1013.16 1012.98 1013.06 1012.78 1012.88 1012.00 1012.30 1012.35 1012.29 1012.10 1011.60 1011.45 1011.52 1011.67 1012.07 1013.55 1013.90 1014.67 1015.52 1015.98 1016.39 1016.71 1016.80 1017.32 1017.00
1011.40 1011.78 1012.61 1013.59 1014.54 1015.27 1015.88 1016.29 1016.44 1016.75 1016.98 1017.09 1016.94 1016.65 1016.31 1015.91 1015.43 1014.83 1014.14 1013.82 1013.49 1013.18 1013.08 1012.93 1013.17 1013.36 1013.23 1013.28 1013.00 1012.68 1012.25 1012.11 1012.16 1012.02 1012.29 1012.89 1013.88 1014.85 1015.55 1015.77 1016.79 1017.00 1017.39 1017.56 1018.25 1019.73 1019.44
1011.10 1011.41 1012.19 1013.18 1014.20 1014.99 1015.65 1016.14 1016.42 1016.58 1016.80 1016.95 1016.93 1016.66 1016.38 1015.87 1015.29 1014.66 1013.88 1013.82 1014.36 1014.43 1014.28 1014.64 1014.54 1014.12 1013.83 1013.52 1013.10 1012.90 1012.67 1012.57 1012.70 1013.11 1014.13 1014.57 1015.29 1016.38 1016.53 1016.43 1016.76 1017.25 1017.83 1018.17 1018.90 1019.65 1020.33
1011.18 1011.04 1011.86 1012.71 1013.93 1014.60 1015.45 1015.84 1016.35 1016.52 1016.65 1016.82 1016.79 1016.66 1016.36 1015.84 1015.27 1014.72 1014.57 1015.69 1016.12 1016.25 1015.63 1014.91 1014.47 1014.18 1013.86 1013.78 1013.73 1013.53 1013.05 1013.50 1013.87 1014.61 1014.89 1015.51 1016.23 1016.64 1016.67 1016.81 1017.19 1017.60 1018.22 1018.67 1019.55 1020.05 1020.77
1011.23 1010.93 1011.62 1012.58 1013.64 1014.14 1015.14 1015.48 1016.17 1016.39 1016.59 1016.63 1016.66 1016.55 1016.25 1015.76 1015.22 1015.08 1015.81 1016.50 1016.42 1016.20 1015.90 1015.21 1014.60 1014.26 1014.13 1014.14 1014.52 1014.45 1014.23 1014.49 1014.96 1015.38 1015.84 1016.19 1016.65 1016.61 1016.85 1017.33 1017.69 1018.10 1018.56 1019.00 1019.62 1020.47 1021.40
1011.85 1010.96 1011.34 1012.49 1013.27 1013.73 1014.66 1015.26 1015.94 1016.32 1016.55 1016.48 1016.49 1016.42 1016.08 1015.56 1015.57 1016.15 1016.48 1016.56 1016.46 1016.38 1016.47 1016.05 1014.80 1014.33 1014.31 1014.44 1015.13 1015.06 1015.00 1015.19 1015.67 1016.29 1016.40 1016.82 1016.78 1016.91 1017.29 1017.81 1018.09 1018.38 1018.65 1019.15 1019.65 1020.67 1021.44
1010.32 1011.10 1010.86 1011.91 1012.55 1013.43 1014.32 1015.03 1015.68 1016.16 1016.59 1016.38 1016.37 1016.21 1016.08 1015.62 1015.92 1016.52 1016.94 1016.69 1016.52 1016.38 1016.83 1016.17 1014.93 1014.26 1014.63 1015.21 1015.71 1015.66 1015.98 1015.62 1016.70 1017.00 1017.14 1017.59 1017.35 1017.42 1017.67 1018.11 1018.25 1018.66 1019.00 1019.39 1019.86 1020.65 1021.46
1010.53 1011.09 1010.80 1011.57 1012.45 1013.22 1014.20 1014.83 1015.37 1016.07 1016.54 1016.41 1016.29 1016.09 1016.01 1016.19 1016.42 1016.91 1016.84 1016.58 1016.77 1016.73 1016.61 1016.04 1015.21 1015.04 1015.46 1015.95 1016.47 1016.64 1016.87 1016.89 1017.60 1017.77 1018.00 1018.19 1017.69 1017.83 1018.09 1018.35 1018.68 1019.01 1019.58 1020.39 1020.99 1021.73 1022.86
1010.34 1010.73 1010.60 1011.45 1012.48 1012.98 1014.08 1014.79 1015.13 1015.98 1016.62 1016.33 1016.08 1016.14 1016.12 1016.64 1017.24 1017.00 1016.81 1017.15 1017.38 1017.33 1016.93 1016.51 1015.92 1015.85 1016.35 1017.09 1017.58 1018.08 1018.99 1019.41 1019.72 1019.53 1019.71 1019.13 1018.82 1018.58 1018.56 1018.82 1019.10 1019.54 1020.45 1021.56 1022.57 1023.13 1023.66
1010.50 1010.45 1010.66 1011.19 1012.09 1013.53 1013.92 1014.87 1014.68 1015.93 1016.64 1016.09 1015.87 1016.06 1016.88 1017.23 1017.35 1017.08 1017.12 1017.40 1017.66 1017.49 1016.85 1016.43 1016.30 1016.59 1017.14 1017.64 1018.44 1019.16 1019.98 1020.97 1020.99 1021.08 1021.18 1020.84 1020.14 1019.71 1019.52 1019.81 1020.27 1020.87 1021.63 1022.70 1023.53 1024.50 1024.60
1010.27 1010.31 1010.62 1011.36 1012.34 1013.10 1013.56 1014.52 1014.97 1016.27 1016.10 1016.15 1016.07 1016.72 1017.33 1017.38 1017.35 1017.06 1017.54 1018.21 1017.87 1017.33 1016.68 1016.57 1016.79 1017.21 1017.78 1018.13 1018.80 1019.84 1020.97 1021.82 1022.19 1022.08 1022.13 1022.02 1021.29 1020.62 1020.38 1020.33 1020.73 1021.50 1022.34 1022.98 1024.01 1025.24 1025.73
1009.88 1010.22 1010.42 1010.80 1011.84 1012.77 1013.68 1014.44 1015.26 1015.85 1015.80 1016.24 1016.45 1017.13 1017.86 1017.45 1017.32 1017.30 1018.08 1018.45 1017.82 1017.18 1016.61 1016.56 1017.15 1017.68 1018.30 1018.85 1019.50 1020.38 1021.49 1022.33 1022.56 1022.66 1022.58 1023.08 1022.64 1021.84 1021.34 1021.11 1021.46 1021.78 1022.81 1023.64 1024.76 1026.02 1026.66
1009.55 1010.30 1010.53 1011.34 1012.16 1013.08 1014.06 1014.69 1015.17 1015.62 1015.71 1015.80 1016.84 1017.66 1017.92 1017.42 1017.34 1017.80 1018.51 1018.08 1017.45 1017.06 1016.56 1017.08 1017.57 1018.09 1018.58 1019.29 1020.11 1021.06 1022.00 1022.69 1022.74 1023.03 1023.07 1023.48 1023.66 1023.03 1022.45 1022.90 1023.01 1023.10 1023.81 1024.87 1025.58 1026.62 1027.42
1009.33 1010.33 1010.38 1011.26 1012.13 1013.03 1013.85 1014.49 1014.72 1015.17 1015.35 1016.28 1017.21 1018.12 1017.97 1016.99 1018.31 1019.10 1018.59 1017.64 1017.36 1017.24 1017.01 1017.38 1017.81 1018.35 1018.88 1019.71 1020.69 1021.55 1022.38 1022.87 1023.17 1023.43 1023.84 1024.20 1024.58 1024.48 1024.31 1024.04 1023.85 1024.18 1025.00 1025.58 1026.52 1027.56 1028.18
1008.97 1010.66 1010.79 1011.23 1012.02 1012.99 1013.61 1014.16 1014.76 1015.25 1015.18 1016.65 1018.05 1018.55 1018.15 1017.82 1019.05 1019.66 1018.85 1018.08 1017.58 1017.52 1017.48 1017.93 1018.52 1018.75 1019.29 1020.30 1021.47 1022.33 1023.03 1023.64 1023.63 1023.91 1024.20 1024.56 1025.18 1025.32 1024.97 1024.95 1024.80 1025.41 1025.81 1026.16 1027.02 1027.80 1028.30
1010.42 1011.35 1011.36 1011.45 1012.24 1013.02 1013.73 1014.35 1014.79 1015.22 1015.58 1016.57 1018.21 1019.01 1019.14 1019.65 1019.73 1019.33 1019.12 1018.61 1018.29 1017.88 1017.96 1018.33 1018.98 1019.29 1020.08 1021.03 1021.92 1023.13 1023.77 1024.19 1024.20 1024.35 1024.66 1024.92 1025.75 1025.76 1025.90 1025.83 1026.09 1026.51 1026.79 1027.03 1027.53 1028.34 1028.28
1010.80 1011.02 1011.76 1011.64 1012.48 1013.53 1014.08 1014.53 1015.10 1015.42 1015.57 1016.01 1018.00 1019.10 1019.38 1020.12 1020.23 1019.68 1018.98 1018.75 1018.63 1018.54 1018.54 1018.83 1019.60 1019.95 1020.59 1021.80 1022.69 1023.55 1024.23 1024.66 1024.93 1025.02 1025.19 1025.71 1026.45 1026.69 1026.48 1026.59 1026.85 1027.05 1027.14 1027.39 1027.74 1027.67 1028.11
1011.06 1011.57 1012.03 1012.51 1012.91 1013.70 1014.16 1014.56 1014.76 1014.98 1015.16 1016.21 1018.07 1019.04 1019.60 1019.95 1019.68 1019.82 1019.57 1019.36 1018.98 1019.23 1019.36 1019.74 1020.11 1020.78 1021.20 1022.03 1022.46 1023.56 1024.10 1024.79 1024.99 1025.73 1025.98 1026.45 1027.22 1027.67 1027.61 1027.38 1027.64 1027.56 1026.93 1026.96 1027.40 1027.66 1027.73
1012.11 1012.71 1013.05 1013.05 1013.48 1014.03 1014.51 1014.79 1015.17 1015.28 1015.40 1016.91 1018.24 1018.50 1018.62 1020.59 1020.44 1020.29 1019.95 1019.61 1019.47 1019.51 1020.56 1020.48 1020.74 1021.48 1022.19 1022.54 1022.99 1023.52 1023.85 1024.18 1024.54 1025.52 1026.54 1027.30 1028.14 1028.90 1028.75 1028.38 1028.10 1027.36 1026.33 1026.55 1026.81 1027.24 1027.59
1012.68 1013.04 1013.15 1013.25 1013.87 1014.37 1014.82 1014.74 1014.96 1015.35 1015.37 1016.43 1017.64 1018.04 1019.05 1020.86 1020.57 1020.21 1020.09 1020.02 1020.27 1020.38 1020.97 1021.68 1021.69 1022.12 1023.20 1023.19 1023.77 1024.21 1024.67 1025.13 1025.52 1026.02 1026.34 1027.54 1028.76 1029.79 1030.15 1029.65 1028.82 1026.50 1026.03 1026.05 1026.59 1027.50 1028.06
1012.92 1013.48 1013.86 1013.96 1014.74 1015.16 1015.11 1015.01 1015.09 1015.57 1015.90 1016.56 1017.63 1018.10 1018.97 1020.50 1020.65 1020.58 1020.60 1020.84 1021.07 1021.61 1022.25 1022.60 1023.06 1023.20 1023.23 1024.03 1025.43 1026.45 1026.93 1026.28 1026.29 1026.66 1027.15 1027.47 1028.76 1030.56 1031.26 1030.91 1028.41 1026.45 1026.35 1026.39 1026.70 1027.76 1028.40
1014.10 1014.14 1014.16 1014.56 1014.99 1015.01 1015.17 1015.24 1015.26 1015.68 1016.06 1016.79 1018.07 1018.16 1018.68 1020.14 1021.38 1020.72 1021.11 1021.23 1021.89 1022.73 1023.43 1023.80 1023.95 1023.61 1024.18 1025.82 1026.75 1027.73 1027.65 1027.00 1027.27 1027.50 1027.64 1028.23 1028.95 1030.14 1031.84 1031.77 1029.46 1026.54 1026.15 1026.05 1026.63 1027.86 1028.32
1014.55 1014.77 1014.90 1014.63 1014.70 1015.26 1015.67 1015.60 1015.53 1015.93 1016.33 1016.91 1018.65 1018.54 1018.86 1020.79 1021.76 1021.54 1021.44 1021.64 1021.89 1022.74 1023.74 1024.23 1024.24 1024.63 1025.12 1026.59 1028.10 1028.79 1028.43 1027.42 1027.25 1027.45 1027.95 1028.64 1029.61 1030.34 1031.28 1031.10 1028.56 1026.52 1026.25 1026.36 1027.49 1028.26 1028.61
1015.24 1015.15 1015.08 1015.52 1015.30 1016.00 1016.07 1015.95 1016.07 1016.29 1016.58 1016.95 1018.95 1018.75 1019.09 1021.21 1022.29 1022.04 1021.77 1021.70 1022.16 1022.49 1023.22 1024.28 1025.05 1025.62 1026.50 1027.27 1028.28 1028.91 1028.66 1027.82 1027.34 1027.12 1027.28 1027.80 1028.90 1029.80 1030.50 1030.49 1028.29 1026.50 1027.17 1027.42 1027.51 1028.12 1028.84
1015.47 1015.90 1015.70 1015.29 1015.84 1016.57 1016.43 1016.32 1016.37 1016.54 1016.79 1016.75 1018.64 1019.00 1019.08 1020.81 1022.99 1022.71 1022.32 1022.14 1022.03 1022.15 1022.80 1023.87 1024.34 1024.79 1025.53 1026.92 1028.26 1029.01 1029.18 1028.51 1027.82 1027.49 1026.97 1027.43 1027.02 1027.61 1028.38 1027.71 1026.99 1026.96 1027.13 1027.40 1027.72 1028.35 1029.29
Thickness
5623 5631 5638 5644 5650 5655 5663 5668 5672 5677 5684 5691 5696 5702 5711 5719 5727 5736 5743 5750 5757 5763 5770 5775 5780 5786 5792 5772 5772 5797 5801 5805 5808 5806 5794 5789 5779 5772 5756 5759 5759 5752 5749 5747 5750 5750 5747
5617 5623 5632 5637 5645 5651 5656 5665 5668 5673 5679 5687 5694 5700 5708 5715 5724 5733 5741 5749 5756 5762 5769 5773 5777 5784 5780 5755 5789 5793 5796 5800 5797 5793 5788 5786 5778 5777 5762 5756 5749 5749 5740 5738 5740 5737 5732
5610 5618 5626 5631 5638 5645 5651 5660 5665 5669 5675 5682 5691 5698 5705 5712 5720 5730 5738 5746 5754 5761 5766 5771 5775 5778 5768 5761 5786 5789 5791 5791 5794 5789 5780 5785 5782 5770 5763 5750 5753 5746 5731 5731 5724 5725 5724
5604 5613 5621 5625 5630 5640 5644 5653 5662 5665 5672 5677 5685 5694 5701 5710 5720 5728 5737 5744 5752 5759 5764 5768 5772 5773 5753 5781 5783 5783 5783 5783 5790 5790 5785 5784 5780 5764 5754 5751 5733 5721 5714 5697 5710 5707 5715
5598 5608 5616 5621 5624 5633 5639 5646 5656 5661 5667 5673 5681 5689 5697 5706 5716 5726 5735 5744 5751 5755 5760 5764 5765 5763 5746 5776 5767 5774 5775 5769 5776 5782 5779 5777 5767 5742 5737 5718 5702 5696 5686 5688 5688 5687 5693
5589 5601 5610 5616 5620 5625 5633 5640 5649 5657 5664 5669 5677 5686 5694 5703 5712 5722 5733 5741 5747 5753 5756 5760 5758 5745 5750 5744 5759 5766 5772 5771 5763 5764 5758 5749 5731 5715 5705 5698 5675 5687 5678 5678 5667 5659 5666
5580 5593 5601 5610 5615 5620 5627 5635 5643 5651 5659 5666 5673 5682 5690 5699 5709 5719 5731 5735 5729 5730 5735 5727 5730 5734 5740 5749 5759 5756 5760 5758 5754 5741 5721 5723 5704 5690 5699 5703 5697 5684 5672 5672 5668 5663 5655
5569 5587 5593 5603 5609 5617 5621 5630 5637 5645 5653 5661 5668 5676 5685 5695 5705 5715 5721 5712 5715 5719 5714 5728 5730 5734 5740 5743 5731 5741 5752 5735 5729 5712 5718 5704 5692 5702 5697 5695 5687 5679 5664 5660 5661 5661 5654
5563 5580 5584 5594 5602 5614 5617 5626 5632 5640 5648 5657 5664 5672 5681 5691 5701 5707 5706 5706 5711 5716 5706 5717 5725 5725 5728 5732 5720 5721 5732 5726 5713 5704 5701 5691 5698 5702 5693 5678 5673 5671 5658 5659 5656 5653 5647
5547 5573 5582 5586 5596 5608 5614 5620 5627 5634 5642 5652 5660 5668 5678 5688 5692 5694 5696 5702 5706 5710 5679 5692 5707 5716 5722 5723 5709 5722 5722 5719 5706 5697 5699 5692 5698 5689 5679 5672 5671 5664 5667 5662 5658 5641 5627
5549 5562 5580 5585 5596 5603 5610 5616 5623 5629 5635 5646 5655 5664 5673 5682 5685 5685 5691 5696 5700 5701 5643 5693 5701 5722 5715 5705 5707 5707 5712 5711 5690 5689 5692 5681 5684 5678 5670 5670 5670 5662 5661 5658 5656 5641 5636
5543 5554 5573 5582 5591 5597 5604 5610 5619 5623 5629 5639 5649 5659 5667 5673 5678 5680 5686 5691 5692 5667 5652 5681 5695 5693 5694 5693 5693 5696 5692 5696 5691 5681 5677 5673 5683 5678 5672 5668 5665 5660 5651 5639 5629 5621 5612
5539 5552 5568 5578 5586 5594 5596 5604 5613 5616 5622 5634 5646 5653 5660 5664 5667 5674 5680 5679 5657 5637 5679 5671 5678 5686 5682 5676 5677 5674 5663 5654 5651 5661 5648 5659 5664 5664 5665 5659 5657 5646 5632 5613 5620 5607 5605
5530 5548 5561 5574 5583 5582 5590 5596 5610 5609 5614 5630 5641 5648 5649 5653 5659 5667 5670 5662 5657 5656 5665 5679 5677 5675 5669 5671 5665 5659 5654 5640 5644 5641 5628 5632 5637 5649 5652 5649 5642 5635 5625 5603 5614 5596 5593
5527 5544 5557 5568 5574 5582 5590 5591 5600 5599 5611 5622 5632 5636 5639 5646 5653 5661 5656 5622 5636 5656 5669 5666 5668 5661 5657 5663 5660 5648 5638 5633 5632 5631 5634 5624 5633 5640 5645 5644 5640 5631 5609 5617 5594 5586 5582
5526 5540 5556 5568 5575 5581 5584 5589 5591 5594 5607 5612 5621 5625 5628 5638 5646 5651 5641 5631 5652 5660 5667 5667 5653 5654 5645 5648 5648 5641 5635 5628 5629 5624 5625 5618 5613 5628 5630 5637 5631 5628 5618 5600 5580 5586 5577
5527 5536 5550 5558 5566 5573 5576 5582 5585 5590 5602 5611 5612 5615 5622 5632 5640 5638 5627 5635 5648 5657 5663 5656 5647 5644 5645 5639 5637 5630 5626 5622 5624 5621 5616 5612 5606 5615 5620 5609 5608 5604 5598 5587 5580 5569 5563
5524 5531 5548 5555 5562 5568 5574 5580 5588 5593 5600 5600 5599 5606 5615 5630 5619 5605 5624 5639 5648 5647 5652 5648 5645 5643 5638 5635 5629 5623 5618 5618 5616 5615 5609 5604 5591 5593 5601 5602 5602 5600 5589 5579 5569 5570 5554
5526 5524 5539 5552 5559 5564 5572 5580 5586 5590 5598 5592 5588 5595 5606 5616 5604 5606 5623 5634 5640 5640 5641 5639 5632 5637 5634 5624 5617 5609 5608 5607 5608 5606 5602 5599 5587 5584 5591 5594 5594 5582 5582 5578 5559 5547 5552
5509 5515 5530 5546 5554 5560 5566 5573 5579 5585 5591 5590 5584 5586 5590 5591 5590 5609 5617 5623 5624 5632 5632 5631 5625 5627 5621 5616 5605 5594 5598 5599 5599 5598 5595 5590 5573 5585 5578 5587 5576 5575 5569 5567 5557 5537 5545
5502 5518 5526 5540 5546 5551 5557 5565 5570 5577 5585 5590 5573 5577 5588 5582 5594 5603 5615 5617 5617 5619 5623 5624 5618 5618 5613 5604 5599 5591 5590 5590 5590 5590 5587 5580 5579 5574 5573 5569 5569 5565 5558 5550 5541 5545 5540
5506 5515 5524 5533 5542 5547 5555 5562 5567 5575 5583 5580 5573 5575 5574 5579 5590 5597 5600 5605 5610 5609 5611 5612 5610 5606 5607 5598 5598 5587 5586 5583 5584 5578 5579 5565 5565 5562 5564 5561 5551 5547 5549 5544 5538 5537 5528
5498 5507 5515 5526 5534 5539 5546 5553 5559 5566 5575 5571 5568 5574 5582 5561 5571 5584 5586 5596 5602 5602 5596 5601 5601 5594 5593 5593 5591 5587 5585 5584 5583 5570 5560 5556 5543 5534 5552 5538 5539 5547 5552 5543 5539 5532 5531
5494 5503 5513 5522 5525 5530 5536 5546 5555 5561 5570 5570 5568 5572 5569 5550 5568 5579 5586 5593 5591 5594 5588 5582 5589 5588 5581 5576 5576 5574 5567 5566 5568 5559 5554 5541 5536 5519 5514 5521 5486 5560 5548 5550 5539 5518 5509
5489 5494 5502 5511 5514 5519 5529 5538 5546 5551 5558 5561 5559 5566 5562 5539 5561 5575 5576 5570 5568 5565 5565 5567 5565 5566 5567 5567 5552 5551 5530 5561 5561 5554 5547 5540 5526 5494 5473 5491 5528 5549 5536 5534 5538 5526 5496
5477 5485 5494 5500 5506 5515 5523 5530 5538 5543 5550 5551 5548 5554 5556 5545 5543 5560 5560 5562 5549 5543 5546 5549 5551 5553 5550 5532 5525 5505 5520 5549 5544 5540 5532 5526 5518 5509 5449 5456 5485 5544 5536 5531 5527 5509 5488
5466 5472 5481 5493 5502 5507 5512 5520 5529 5534 5538 5542 5534 5542 5545 5524 5529 5540 5544 5544 5542 5537 5529 5536 5543 5545 5536 5519 5503 5501 5519 5537 5530 5534 5523 5516 5506 5496 5466 5441 5494 5521 5526 5522 5511 5510 5482
5458 5467 5476 5481 5492 5494 5502 5512 5518 5524 5528 5532 5523 5530 5535 5511 5514 5524 5528 5534 5530 5530 5528 5524 5521 5516 5510 5513 5502 5494 5492 5519 5530 5529 5518 5512 5491 5484 5480 5461 5478 5518 5509 5505 5498 5478 5471
5454 5457 5468 5481 5483 5484 5492 5503 5509 5515 5517 5524 5515 5518 5524 5515 5503 5508 5516 5518 5522 5526 5518 5513 5524 5516 5513 5500 5485 5484 5490 5481 5508 5507 5518 5509 5509 5499 5497 5500 5502 5498 5498 5484 5478 5471 5459